TimeCDT,TemperatureF,Dew PointF,Humidity,Sea Level PressureIn,VisibilityMPH,Wind Direction,Wind SpeedMPH,Gust SpeedMPH,PrecipitationIn,Events,Conditions,WindDirDegrees,DateUTC
12:55 AM,25.5,25.0,98,30.45,10.0,ENE,3.5,-,N/A,,Clear,60,2012-10-27 05:55:00
1:55 AM,27.3,25.9,94,30.45,10.0,Calm,Calm,-,N/A,,Clear,0,2012-10-27 06:55:00
2:55 AM,26.1,25.2,96,30.44,10.0,Calm,Calm,-,N/A,,Clear,0,2012-10-27 07:55:00
3:55 AM,23.0,22.8,99,30.43,10.0,North,3.5,-,N/A,,Clear,10,2012-10-27 08:55:00
4:55 AM,24.8,23.9,96,30.43,10.0,Calm,Calm,-,N/A,,Clear,0,2012-10-27 09:55:00
5:55 AM,23.9,23.2,97,30.44,10.0,Calm,Calm,-,N/A,,Partly Cloudy,0,2012-10-27 10:55:00
6:55 AM,25.3,24.6,97,30.45,10.0,Calm,Calm,-,N/A,,Partly Cloudy,0,2012-10-27 11:55:00
7:55 AM,26.4,25.5,96,30.46,10.0,Calm,Calm,-,N/A,,Partly Cloudy,0,2012-10-27 12:55:00
8:55 AM,27.0,26.1,96,30.47,10.0,Calm,Calm,-,N/A,,Mostly Cloudy,0,2012-10-27 13:55:00
9:55 AM,32.4,29.7,90,30.45,10.0,Calm,Calm,-,N/A,,Partly Cloudy,0,2012-10-27 14:55:00
10:55 AM,36.9,28.6,72,30.44,10.0,SE,5.8,-,N/A,,Partly Cloudy,130,2012-10-27 15:55:00
11:55 AM,40.3,25.9,56,30.42,10.0,ESE,8.1,-,N/A,,Partly Cloudy,120,2012-10-27 16:55:00
12:55 PM,42.4,25.9,52,30.39,10.0,Calm,Calm,-,N/A,,Clear,0,2012-10-27 17:55:00
1:55 PM,44.1,25.5,48,30.35,10.0,Calm,Calm,-,N/A,,Clear,0,2012-10-27 18:55:00
2:55 PM,46.6,25.9,44,30.31,10.0,East,3.5,-,N/A,,Clear,90,2012-10-27 19:55:00
3:55 PM,46.9,24.8,42,30.29,10.0,Variable,5.8,-,N/A,,Mostly Cloudy,0,2012-10-27 20:55:00
4:55 PM,46.8,24.8,42,30.29,10.0,Variable,4.6,-,N/A,,Overcast,0,2012-10-27 21:55:00
5:55 PM,46.2,24.1,42,30.28,10.0,Calm,Calm,-,N/A,,Overcast,0,2012-10-27 22:55:00
6:55 PM,44.6,25.7,48,30.29,10.0,SE,3.5,-,N/A,,Overcast,130,2012-10-27 23:55:00
7:55 PM,44.2,26.4,50,30.30,10.0,Calm,Calm,-,N/A,,Overcast,0,2012-10-28 00:55:00
8:55 PM,43.3,27.9,54,30.32,10.0,Calm,Calm,-,N/A,,Mostly Cloudy,0,2012-10-28 01:55:00
9:55 PM,39.6,30.4,70,30.32,10.0,East,4.6,-,N/A,,Overcast,100,2012-10-28 02:55:00
10:55 PM,38.1,28.2,68,30.33,10.0,Calm,Calm,-,N/A,,Mostly Cloudy,0,2012-10-28 03:55:00
11:55 PM,35.1,27.3,73,30.32,10.0,Calm,Calm,-,N/A,,Clear,0,2012-10-28 04:55:00